Location: Beaver Brook Station
(42.3793°N, 71.2203°W)
Time: 01:29:06
(UTC+00:00)

Cosmos 1408 - Pass Details

Date: 29 October 2020
Orbit: 470 x 492 km, 82.6° (Epoch: 25 November)

Event Time Altitude Azimuth Distance (km) Brightness Sun altitude
Rises 22:56:50 0° 356° (N) 2,557 6.2 -14.5°
Reaches altitude 10° 22:58:58 10° 2° (N) 1,676 5.2 -14.8°
Maximum altitude 23:02:34 53° 79° (E) 605 2.6 -15.5°
Drops below altitude 10° 23:06:09 10° 158° (SSE) 1,673 5.1 -16.2°
Sets 23:08:17 0° 163° (SSE) 2,553 6.1 -16.6°
